TimeCST,TemperatureF,Dew PointF,Humidity,Sea Level PressureIn,VisibilityMPH,Wind Direction,Wind SpeedMPH,Gust SpeedMPH,PrecipitationIn,Events,Conditions,WindDirDegrees,DateUTC
12:52 AM,17.1,10.0,74,30.48,10.0,NW,19.6,28.8,N/A,,Partly Cloudy,310,2012-11-23 06:52:00
1:52 AM,17.1,10.0,74,30.50,10.0,NW,18.4,-,N/A,,Clear,320,2012-11-23 07:52:00
2:52 AM,16.0,10.0,77,30.52,10.0,NW,19.6,25.3,N/A,,Clear,310,2012-11-23 08:52:00
3:52 AM,16.0,10.0,77,30.53,10.0,NW,18.4,-,N/A,,Clear,310,2012-11-23 09:52:00
4:52 AM,15.1,9.0,77,30.54,10.0,NW,18.4,26.5,N/A,,Clear,320,2012-11-23 10:52:00
5:52 AM,15.1,9.0,77,30.56,10.0,NW,18.4,-,N/A,,Clear,320,2012-11-23 11:52:00
6:52 AM,14.0,9.0,80,30.57,10.0,NNW,9.2,-,N/A,,Clear,330,2012-11-23 12:52:00
7:52 AM,12.9,9.0,84,30.58,10.0,NW,11.5,-,N/A,,Clear,310,2012-11-23 13:52:00
8:52 AM,15.1,9.0,77,30.58,10.0,NW,10.4,-,N/A,,Clear,320,2012-11-23 14:52:00
9:52 AM,16.0,9.0,74,30.58,10.0,NW,11.5,-,N/A,,Clear,320,2012-11-23 15:52:00
10:52 AM,19.9,10.0,65,30.58,10.0,NNW,10.4,-,N/A,,Clear,330,2012-11-23 16:52:00
11:52 AM,21.0,10.9,65,30.56,10.0,NW,10.4,-,N/A,,Clear,310,2012-11-23 17:52:00
12:52 PM,23.0,10.9,60,30.53,10.0,NW,8.1,-,N/A,,Clear,310,2012-11-23 18:52:00
1:52 PM,25.0,10.9,55,30.50,10.0,WNW,5.8,-,N/A,,Clear,300,2012-11-23 19:52:00
2:52 PM,26.1,10.9,53,30.48,10.0,WNW,5.8,-,N/A,,Clear,300,2012-11-23 20:52:00
3:52 PM,27.0,10.9,51,30.46,10.0,North,3.5,-,N/A,,Clear,10,2012-11-23 21:52:00
4:52 PM,21.9,10.9,63,30.45,10.0,NE,3.5,-,N/A,,Clear,40,2012-11-23 22:52:00
5:52 PM,21.9,12.0,66,30.43,10.0,East,5.8,-,N/A,,Clear,80,2012-11-23 23:52:00
6:52 PM,21.0,12.9,71,30.41,10.0,ESE,5.8,-,N/A,,Clear,110,2012-11-24 00:52:00
7:52 PM,21.9,12.9,68,30.39,10.0,East,6.9,-,N/A,,Clear,90,2012-11-24 01:52:00
8:52 PM,23.0,12.9,65,30.36,10.0,ESE,8.1,-,N/A,,Overcast,110,2012-11-24 02:52:00
9:52 PM,24.1,12.9,62,30.35,10.0,SE,9.2,-,N/A,,Overcast,130,2012-11-24 03:52:00
10:52 PM,24.1,12.9,62,30.32,10.0,ESE,6.9,-,N/A,,Overcast,120,2012-11-24 04:52:00
11:52 PM,24.1,12.9,62,30.27,10.0,SE,9.2,-,N/A,,Mostly Cloudy,130,2012-11-24 05:52:00